| time (UTC) | temp F | wind direction | speed MPH | gust MPH | rain 1hr in | rain 24hr in | rain mn in | humidity % | barometer mb |
| 20260508174555 | 65 | 276 | 2.0 | 7.0 | 0.00 | 0.00 | 0.00 | 37 | 1017.2 |
| 20260508173055 | 65 | 182 | 2.0 | 9.0 | 0.00 | 0.00 | 0.00 | 34 | 1017.4 |
| 20260508171554 | 66 | 167 | 3.0 | 11.0 | 0.00 | 0.00 | 0.00 | 35 | 1017.7 |
| 20260508170059 | 65 | 267 | 2.0 | 8.0 | 0.00 | 0.00 | 0.00 | 36 | 1017.9 |
| 20260508164554 | 65 | 148 | 2.0 | 9.0 | 0.00 | 0.00 | 0.00 | 38 | 1018.3 |
| 20260508163104 | 65 | 108 | 1.0 | 7.0 | 0.00 | 0.00 | 0.00 | 38 | 1018.3 |
| 20260508161557 | 65 | 166 | 2.0 | 5.0 | 0.00 | 0.00 | 0.00 | 38 | 1018.9 |
| 20260508160050 | 64 | 313 | 1.0 | 5.0 | 0.00 | 0.00 | 0.00 | 37 | 1018.8 |
| 20260508154548 | 64 | 261 | 1.0 | 5.0 | 0.00 | 0.00 | 0.00 | 38 | 1018.9 |
| 20260508153059 | 63 | 173 | 3.0 | 6.0 | 0.00 | 0.00 | 0.00 | 40 | 1019.0 |
| 20260508151544 | 62 | 213 | 1.0 | 5.0 | 0.00 | 0.00 | 0.00 | 38 | 1018.9 |
| 20260508150043 | 61 | 32 | 2.0 | 5.0 | 0.00 | 0.00 | 0.00 | 40 | 1018.9 |
| 20260508144543 | 62 | 296 | 1.0 | 4.0 | 0.00 | 0.01 | 0.00 | 42 | 1019.0 |
| 20260508143058 | 61 | 269 | 1.0 | 7.0 | 0.00 | 0.01 | 0.00 | 40 | 1019.2 |
| 20260508141541 | 61 | 149 | 3.0 | 7.0 | 0.00 | 0.01 | 0.00 | 41 | 1019.3 |
| 20260508140039 | 61 | 166 | 0.0 | 4.0 | 0.00 | 0.01 | 0.00 | 41 | 1019.3 |
| 20260508134538 | 60 | 100 | 0.0 | 5.0 | 0.00 | 0.04 | 0.00 | 45 | 1019.2 |
| 20260508133032 | 59 | 63 | 1.0 | 5.0 | 0.00 | 0.04 | 0.00 | 49 | 1019.4 |
| 20260508131530 | 58 | 82 | 2.0 | 4.0 | 0.00 | 0.04 | 0.00 | 47 | 1019.2 |
| 20260508130027 | 56 | 344 | 2.0 | 4.0 | 0.00 | 0.04 | 0.00 | 53 | 1019.0 |
| 20260508124528 | 55 | 317 | 1.0 | 5.0 | 0.00 | 0.06 | 0.00 | 56 | 1019.0 |
| 20260508123023 | 54 | 325 | 2.0 | 4.0 | 0.00 | 0.06 | 0.00 | 56 | 1018.8 |
| 20260508121515 | 52 | 327 | 2.0 | 4.0 | 0.00 | 0.06 | 0.00 | 56 | 1018.6 |
| 20260508120014 | 51 | 331 | 2.0 | 4.0 | 0.00 | 0.06 | 0.00 | 54 | 1018.3 |
| 20260508114511 | 49 | 311 | 2.0 | 4.0 | 0.00 | 0.12 | 0.00 | 54 | 1018.2 |
| 20260508113010 | 49 | 316 | 3.0 | 4.0 | 0.00 | 0.12 | 0.00 | 54 | 1017.8 |
| 20260508111514 | 48 | 360 | 3.0 | 5.0 | 0.00 | 0.12 | 0.00 | 54 | 1017.6 |
| 20260508110107 | 48 | 360 | 1.0 | 3.0 | 0.00 | 0.12 | 0.00 | 55 | 1017.3 |
| 20260508104505 | 48 | 360 | 1.0 | 2.0 | 0.00 | 0.12 | 0.00 | 54 | 1017.0 |
| 20260508103011 | 48 | 360 | 2.0 | 3.0 | 0.00 | 0.12 | 0.00 | 53 | 1016.7 |
| 20260508101505 | 48 | 360 | 1.0 | 4.0 | 0.00 | 0.12 | 0.00 | 53 | 1016.5 |
| 20260508100001 | 48 | 360 | 1.0 | 4.0 | 0.00 | 0.12 | 0.00 | 52 | 1016.3 |
| 20260508094600 | 48 | 360 | 2.0 | 3.0 | 0.00 | 0.13 | 0.00 | 53 | 1016.2 |
| 20260508093059 | 48 | 360 | 1.0 | 2.0 | 0.00 | 0.13 | 0.00 | 54 | 1016.3 |
| 20260508091611 | 48 | 360 | 0.0 | 3.0 | 0.00 | 0.13 | 0.00 | 54 | 1016.1 |
| 20260508090056 | 48 | 360 | 1.0 | 3.0 | 0.00 | 0.13 | 0.00 | 54 | 1016.0 |
| 20260508084555 | 48 | 360 | 1.0 | 2.0 | 0.00 | 0.14 | 0.00 | 55 | 1016.0 |
| 20260508083052 | 48 | 360 | 0.0 | 3.0 | 0.00 | 0.14 | 0.00 | 56 | 1015.9 |
| 20260508081610 | 48 | 360 | 0.0 | 3.0 | 0.00 | 0.14 | 0.00 | 57 | 1015.8 |
| 20260508080050 | 49 | 360 | 1.0 | 3.0 | 0.00 | 0.14 | 0.00 | 60 | 1015.8 |
| 20260508074548 | 49 | 360 | 0.0 | 0.0 | 0.00 | 0.14 | 0.00 | 60 | 1015.6 |
| 20260508073048 | 50 | 360 | 0.0 | 0.0 | 0.00 | 0.14 | 0.00 | 63 | 1015.6 |
| 20260508071542 | 50 | 360 | 0.0 | 0.0 | 0.00 | 0.14 | 0.00 | 64 | 1015.3 |
| 20260508070040 | 51 | 360 | 0.0 | 0.0 | 0.00 | 0.14 | 0.00 | 64 | 1015.3 |
| 20260508064539 | 51 | 360 | 0.0 | 0.0 | 0.00 | 0.18 | 0.14 | 63 | 1015.1 |
| 20260508063037 | 52 | 360 | 0.0 | 1.0 | 0.00 | 0.18 | 0.14 | 62 | 1015.1 |
| 20260508061535 | 52 | 360 | 0.0 | 0.0 | 0.00 | 0.18 | 0.14 | 63 | 1015.0 |
| 20260508060048 | 52 | 360 | 0.0 | 2.0 | 0.00 | 0.18 | 0.14 | 62 | 1015.1 |
| 20260508054607 | 53 | 360 | 0.0 | 2.0 | 0.00 | 0.32 | 0.14 | 61 | 1015.1 |
| 20260508053045 | 54 | 360 | 1.0 | 4.0 | 0.00 | 0.32 | 0.14 | 58 | 1015.1 |
| 20260508051529 | 53 | 360 | 0.0 | 4.0 | 0.00 | 0.32 | 0.14 | 61 | 1015.0 |
| 20260508050030 | 53 | 360 | 0.0 | 2.0 | 0.00 | 0.32 | 0.14 | 61 | 1015.1 |
| 20260508044530 | 53 | 360 | 0.0 | 2.0 | 0.00 | 0.38 | 0.14 | 60 | 1014.9 |
| 20260508043033 | 54 | 360 | 3.0 | 6.0 | 0.00 | 0.38 | 0.14 | 58 | 1014.9 |
| 20260508041524 | 55 | 360 | 0.0 | 2.0 | 0.00 | 0.38 | 0.14 | 56 | 1014.7 |
| 20260508040030 | 56 | 360 | 0.0 | 0.0 | 0.00 | 0.38 | 0.14 | 56 | 1014.7 |
| 20260508034528 | 57 | 360 | 0.0 | 0.0 | 0.00 | 0.38 | 0.14 | 52 | 1014.8 |
| 20260508033027 | 57 | 360 | 1.0 | 5.0 | 0.00 | 0.38 | 0.14 | 51 | 1014.6 |
| 20260508031515 | 58 | 360 | 3.0 | 6.0 | 0.00 | 0.38 | 0.14 | 51 | 1014.4 |
| 20260508030011 | 58 | 360 | 4.0 | 11.0 | 0.00 | 0.38 | 0.14 | 50 | 1014.5 |
| 20260508024510 | 58 | 360 | 3.0 | 5.0 | 0.00 | 0.46 | 0.14 | 51 | 1014.1 |
| 20260508023008 | 58 | 360 | 3.0 | 5.0 | 0.00 | 0.46 | 0.14 | 49 | 1014.0 |
| 20260508021506 | 59 | 360 | 2.0 | 5.0 | 0.00 | 0.46 | 0.14 | 49 | 1013.9 |
| 20260508020005 | 59 | 360 | 4.0 | 6.0 | 0.00 | 0.46 | 0.14 | 48 | 1013.7 |
| 20260508014502 | 60 | 360 | 3.0 | 10.0 | 0.00 | 0.57 | 0.14 | 48 | 1013.4 |
| 20260508013104 | 60 | 360 | 4.0 | 9.0 | 0.00 | 0.57 | 0.14 | 46 | 1013.2 |
| 20260508011615 | 61 | 360 | 3.0 | 8.0 | 0.00 | 0.57 | 0.14 | 45 | 1012.9 |
| 20260508004556 | 61 | 360 | 0.0 | 6.0 | 0.00 | 0.81 | 0.14 | 48 | 1012.3 |
| 20260508003054 | 62 | 360 | 3.0 | 6.0 | 0.00 | 0.81 | 0.14 | 49 | 1012.0 |
| 20260508001551 | 62 | 360 | 3.0 | 11.0 | 0.00 | 0.81 | 0.14 | 49 | 1011.4 |
| 20260508000052 | 63 | 360 | 3.0 | 9.0 | 0.00 | 0.81 | 0.14 | 49 | 1011.4 |
| 20260507234552 | 64 | 310 | 5.0 | 14.0 | 0.00 | 0.95 | 0.14 | 48 | 1011.3 |
| 20260507233052 | 65 | 320 | 5.0 | 14.0 | 0.00 | 0.95 | 0.14 | 48 | 1011.1 |
| 20260507231552 | 65 | 360 | 12.0 | 18.0 | 0.00 | 0.95 | 0.14 | 47 | 1011.0 |
| 20260507230050 | 67 | 312 | 13.0 | 21.0 | 0.00 | 0.95 | 0.14 | 47 | 1010.4 |
| 20260507224549 | 70 | 17 | 9.0 | 15.0 | 0.00 | 0.96 | 0.14 | 45 | 1009.6 |
| 20260507223048 | 71 | 360 | 6.0 | 14.0 | 0.00 | 0.96 | 0.14 | 45 | 1009.2 |
| 20260507221548 | 72 | 310 | 9.0 | 16.0 | 0.00 | 0.96 | 0.14 | 45 | 1008.9 |
| 20260507220047 | 73 | 355 | 8.0 | 15.0 | 0.00 | 0.96 | 0.14 | 46 | 1008.6 |
| 20260507214549 | 74 | 342 | 9.0 | 13.0 | 0.00 | 0.96 | 0.14 | 44 | 1008.4 |
| 20260507213145 | 74 | 318 | 7.0 | 15.0 | 0.00 | 0.96 | 0.14 | 47 | 1008.2 |
| 20260507211546 | 74 | 338 | 6.0 | 11.0 | 0.00 | 0.96 | 0.14 | 41 | 1008.0 |
| 20260507210044 | 74 | 272 | 5.0 | 14.0 | 0.00 | 0.96 | 0.14 | 37 | 1007.8 |
| 20260507204544 | 77 | 283 | 4.0 | 11.0 | 0.00 | 0.96 | 0.14 | 31 | 1007.6 |
| 20260507203040 | 77 | 207 | 6.0 | 12.0 | 0.00 | 0.96 | 0.14 | 30 | 1007.4 |
| 20260507201543 | 76 | 225 | 2.0 | 10.0 | 0.00 | 0.96 | 0.14 | 33 | 1007.6 |
| 20260507200138 | 76 | 182 | 6.0 | 12.0 | 0.00 | 0.96 | 0.14 | 30 | 1007.6 |
| 20260507194537 | 76 | 169 | 5.0 | 10.0 | 0.00 | 0.96 | 0.14 | 32 | 1007.7 |
| 20260507193036 | 75 | 132 | 3.0 | 9.0 | 0.00 | 0.96 | 0.14 | 34 | 1008.4 |
| 20260507191530 | 74 | 253 | 2.0 | 9.0 | 0.00 | 0.96 | 0.14 | 35 | 1008.3 |
| 20260507190031 | 74 | 255 | 4.0 | 12.0 | 0.00 | 0.96 | 0.14 | 32 | 1008.6 |
| 20260507184527 | 74 | 165 | 2.0 | 10.0 | 0.00 | 0.96 | 0.14 | 35 | 1008.8 |
| 20260507183040 | 73 | 161 | 5.0 | 9.0 | 0.00 | 0.96 | 0.14 | 35 | 1008.8 |
| 20260507181529 | 74 | 215 | 3.0 | 8.0 | 0.00 | 0.96 | 0.14 | 36 | 1008.8 |
| 20260507180033 | 72 | 134 | 4.0 | 8.0 | 0.00 | 0.96 | 0.14 | 37 | 1008.8 |